Lid_Strength_Index
2 5 5 6 8 8 10 9 8 8 8 6 7 6 6 6 7 9 2 1 0 0 -1 -1 -1 -1 -1 -1 -1 -1 -1 -1 -1 -1 -1 -1 -1 -1 -1 -1 -1 -1 -1 -1 -1 -1 -1 -1 -1
5 5 5 7 9 11 10 8 9 8 7 8 7 5 6 7 4 4 3 0 -0 -0 -1 -1 -1 -1 -1 -1 -1 -1 -1 -1 -1 -1 -1 -1 -1 -1 -1 -1 -1 -1 -1 -1 -1 -1 -1 -1 -1
7 6 7 9 9 11 11 8 9 8 8 8 6 4 5 6 4 3 1 0 -0 -0 -1 -1 -1 -1 -1 -1 -1 -1 -1 -1 -1 -1 -1 -1 -1 -1 -1 -1 -1 -1 -1 -1 -1 -1 -1 -1 -1
8 7 7 10 11 10 8 8 9 8 8 7 5 7 4 2 3 2 0 0 0 -0 -1 -1 -1 -1 -1 -1 -1 -1 -1 -1 -1 -1 -1 -1 -1 -1 -1 -1 -1 -1 -1 -1 -1 -1 -1 -1 -1
8 9 10 11 11 10 9 9 8 9 9 8 5 7 6 3 1 1 1 0 0 0 -1 -1 -1 -1 -1 -1 -1 -1 -1 -1 -1 -1 -1 -1 -1 -1 -1 -1 -1 -1 -1 -1 -1 -1 -1 -1 -1
10 10 12 13 12 10 9 9 9 9 9 9 5 6 5 2 2 1 0 0 -0 0 -1 -1 -1 -1 -1 -1 -1 -1 -1 -1 -1 -1 -1 -1 -1 -1 -1 -1 -1 -1 -1 -1 -1 -1 -1 -1 -2
12 11 12 12 12 11 10 9 10 10 10 9 4 7 5 4 2 1 0 0 -0 -0 -0 -1 -1 -1 -1 -1 -1 -1 -1 -1 -1 -1 -1 -1 -1 -1 -1 -1 -1 -1 -1 -1 -1 -1 -2 -2 -3
10 11 13 12 12 11 10 10 9 10 9 7 3 7 6 3 1 1 1 1 0 0 -0 -0 -1 -1 -1 -1 -1 -1 -1 -1 -1 -1 -1 -1 -1 -1 -1 -1 -1 -1 -1 -1 -1 -2 -2 -2 -2
11 13 14 12 12 11 10 11 9 9 9 8 7 6 3 2 1 2 2 2 1 1 0 -0 -0 -1 -1 -1 -1 -1 -1 -1 -1 -1 -1 -1 -2 -2 -2 -2 -1 -1 -1 -1 -2 -2 -2 -2 -2
12 14 13 10 10 10 10 11 10 10 9 7 7 3 3 2 2 3 3 3 2 2 1 -0 -0 -0 -1 -1 -1 -1 -1 -1 -1 -1 -2 -1 -2 -2 -1 -1 -1 -1 -1 -2 -2 -2 -2 -2 -1
12 14 11 11 9 10 10 11 10 10 10 9 8 5 4 3 3 3 3 2 2 1 1 0 -0 -1 -1 -0 -1 -1 -1 -1 -1 -1 -2 -2 -1 -1 -1 -1 -1 -1 -1 -1 -1 -1 -1 -1 -1
14 12 12 11 10 10 10 10 11 10 9 8 8 8 3 4 3 3 3 2 2 1 1 0 -0 -0 -0 -1 -0 -1 -0 -1 -1 -1 -1 -1 -1 -1 -1 -1 -1 -1 -1 -1 -1 -1 -1 -1 -1
12 12 10 11 11 10 10 11 11 10 9 8 8 8 7 3 3 3 2 2 1 2 1 0 -0 -0 -0 -0 -0 -0 -0 -1 -1 -1 -1 -1 -1 -0 -1 -1 -1 -1 -1 -1 -1 -1 -1 -1 -1
11 12 12 12 11 11 12 11 11 10 9 8 8 8 8 7 3 2 2 2 2 1 1 0 0 -0 -0 -0 -0 -0 -1 -1 -1 -1 -1 -1 -1 -1 -0 -0 -0 -1 -1 -1 -1 -1 -0 -0 -1
10 12 13 12 11 12 11 13 12 10 9 9 8 8 8 7 7 6 2 2 2 1 1 1 0 -0 -0 -0 -0 -0 -0 -1 -0 -1 -1 -1 -1 -1 -1 -0 -0 -1 -1 -1 -1 -1 -1 -0 -0
12 12 14 11 12 10 11 14 11 10 10 9 9 8 8 7 7 6 5 3 1 1 1 1 0 0 0 0 -0 -0 -0 -0 -0 -1 -1 -1 -1 -1 -1 -0 0 -1 -1 -1 -0 -0 0 0 0
12 14 12 11 10 10 10 12 9 9 9 8 7 7 7 7 6 5 4 3 1 0 0 1 0 0 0 -0 -0 -0 -0 -0 -0 -1 -1 -1 -1 -1 -1 -0 -0 -1 -0 -0 -0 0 0 1 0
13 12 11 10 9 8 10 9 8 7 8 7 6 6 6 6 5 2 2 2 1 0 -0 0 0 0 0 0 -0 -0 -0 -0 -1 -0 -1 -1 -1 -1 -1 -1 -1 -1 -0 0 0 0 0 0 1
9 10 11 10 8 9 9 9 7 7 7 6 6 6 5 5 4 3 3 2 1 1 0 1 1 1 1 1 1 1 2 1 0 -0 -1 -1 -1 -1 -1 -0 -0 -1 0 0 -0 0 1 1 0
9 10 10 9 9 9 9 9 7 7 7 6 6 5 5 4 3 3 2 2 2 1 0 0 1 1 1 1 1 1 1 0 0 -0 -1 -1 -1 -1 -1 -0 -0 -0 0 0 0 0 1 1 0
9 10 10 10 9 9 10 10 9 7 7 6 6 4 4 4 4 3 2 2 1 1 1 1 1 1 0 0 0 0 0 0 1 1 0 -0 -1 -1 -1 -1 -0 -0 -0 1 0 0 1 2 1
11 8 9 9 10 12 10 13 10 8 7 7 5 5 5 4 3 3 3 2 2 1 1 0 1 1 0 -0 1 1 2 2 1 1 -0 -0 -1 -1 -1 -1 -1 -1 -0 0 0 0 1 1 3
10 8 9 9 10 11 11 12 10 10 9 7 6 5 5 4 4 4 3 3 2 1 1 1 1 1 0 1 0 1 1 1 1 1 0 -0 -0 -1 -1 -1 -1 -0 -0 -0 -0 -0 0 1 1
7 9 10 10 11 13 11 11 11 10 9 8 6 5 5 4 4 3 2 2 2 1 1 1 1 1 0 1 1 1 1 1 1 1 1 1 0 -0 -1 -1 -1 -1 -1 -0 -0 -0 -0 0 0
8 10 13 14 14 14 11 12 10 9 8 7 7 6 4 4 4 3 3 3 3 2 2 1 1 1 1 1 0 0 0 0 1 1 1 1 1 1 -0 -1 -0 -0 -1 -1 -1 -0 -0 0 1
9 9 12 16 15 13 11 13 11 8 6 6 5 5 4 4 3 3 3 2 2 2 1 1 1 2 2 2 1 0 0 -0 0 0 0 1 0 0 -1 -1 -1 -1 -1 -1 -1 -0 -0 -0 0
10 11 9 13 13 14 11 11 9 8 7 6 6 6 5 4 3 3 2 2 2 2 2 2 1 1 2 2 1 0 1 1 0 -0 -0 0 -0 -0 -1 -1 -0 -1 -1 -1 -1 -0 0 -0 -0
9 8 13 12 18 18 14 13 11 11 9 7 7 7 7 6 5 4 3 2 2 3 3 2 2 2 2 1 1 1 1 0 0 -0 0 -0 -0 -0 -0 -0 -0 -0 -0 -1 -0 -0 -1 0 0
10 11 11 11 12 16 16 13 9 9 8 8 7 6 6 5 4 4 3 3 3 3 4 4 4 4 4 3 3 3 2 2 1 1 0 0 -0 -0 0 -0 -0 0 -0 -0 -0 0 -0 0 0
10 11 11 15 15 14 15 14 8 7 7 7 7 6 5 5 4 5 5 4 4 4 4 4 4 4 5 4 4 4 4 3 3 3 2 2 2 1 1 0 1 0 0 -0 0 0 1 1 1